Wind_Speed
48 46 45 43 43 45 44 43 43 43 41 40 41 38 37 40 42 43 45 48 53 54 56 59 60 62 64 66 68 72 73 73 75 70 62 43 30 28 32 34 35 36 37 37
45 46 44 44 45 45 45 44 43 43 41 40 38 37 37 33 36 38 44 45 51 51 51 54 58 58 62 64 67 68 71 72 74 73 73 60 49 38 31 30 35 38 39 40
38 37 38 39 40 40 42 41 42 41 40 40 39 37 35 32 32 34 40 46 46 45 48 47 53 55 57 61 66 67 69 72 72 71 73 70 64 50 41 33 31 35 40 43
31 33 32 32 34 35 36 37 38 38 41 38 38 39 38 32 31 30 35 43 43 44 45 48 49 55 54 58 62 64 66 70 71 69 70 73 69 66 49 41 39 36 36 38
22 26 26 26 27 28 29 31 32 35 35 37 36 36 39 36 33 30 32 39 40 45 41 49 46 52 53 55 58 61 65 70 73 72 72 72 74 72 62 50 40 39 39 38
16 18 20 20 21 22 23 25 28 31 33 34 33 33 36 38 34 29 31 37 39 41 42 43 47 51 53 53 56 60 63 70 73 73 70 75 75 75 72 63 54 46 40 38
10 11 12 16 14 17 18 17 21 26 30 31 32 32 35 38 37 32 31 37 41 39 41 41 47 53 54 51 54 60 62 69 73 74 75 77 78 76 74 71 65 55 47 40
7 8 7 8 11 11 13 18 17 23 27 28 31 32 31 35 35 36 33 39 41 41 39 41 47 51 53 52 51 60 64 69 73 74 77 76 78 75 75 73 71 62 54 41
4 7 5 8 9 17 16 18 18 21 26 25 27 31 32 33 34 33 34 39 44 45 43 47 48 51 54 54 53 59 65 69 74 78 76 79 80 75 73 73 67 66 59 50
8 7 5 7 12 17 18 20 19 20 26 29 26 31 34 34 32 35 35 39 44 49 47 48 48 53 56 58 55 57 63 69 75 79 79 82 82 78 73 70 66 60 60 55
13 15 15 16 20 20 18 18 19 21 25 28 29 30 34 34 35 37 35 39 45 48 51 50 50 56 61 60 58 60 64 71 75 79 81 84 83 78 78 73 70 57 51 55
20 20 20 20 24 24 24 26 27 26 26 29 30 31 33 33 37 41 42 41 43 48 51 53 55 58 64 65 62 63 66 73 77 82 84 86 85 81 81 76 75 65 54 49
25 26 26 27 29 28 27 27 29 32 33 34 33 34 34 39 40 41 45 47 49 51 53 54 58 61 64 65 67 67 71 75 79 82 84 87 87 87 85 82 78 67 64 52
30 31 30 31 31 31 32 31 32 35 36 39 39 45 39 42 42 43 46 48 51 53 54 55 59 63 65 68 72 74 75 76 81 85 87 90 91 91 88 86 80 76 69 59
36 36 35 35 34 35 37 37 37 39 39 42 45 47 47 49 48 48 47 47 51 56 56 58 63 66 68 70 75 77 77 79 85 86 91 94 93 93 92 87 88 79 71 64
42 42 41 41 39 41 43 45 42 46 47 48 48 52 50 52 52 52 53 53 55 58 57 62 64 67 71 73 78 78 78 83 86 89 92 97 94 96 94 91 90 84 78 67
48 48 48 46 45 46 47 52 50 51 52 52 53 56 56 57 57 58 57 59 56 58 59 62 66 70 74 77 81 80 84 86 89 91 96 100 97 96 96 95 92 88 81 69
55 56 55 55 53 50 51 55 58 59 58 59 61 63 61 60 61 63 61 60 59 59 61 65 70 74 78 81 83 85 89 91 92 95 100 102 100 100 101 101 96 88 84 74
64 63 63 63 61 57 54 56 61 61 62 67 65 69 69 68 68 67 63 60 58 60 65 70 75 79 83 85 86 88 91 93 95 101 103 102 107 104 105 100 98 93 85 78
74 73 71 70 67 61 57 62 64 65 66 73 72 75 74 73 70 68 63 58 57 65 72 77 80 83 85 86 90 93 94 97 100 104 106 105 107 106 105 104 102 93 85 79
76 75 72 72 68 61 64 70 71 71 73 75 78 78 76 75 72 68 65 64 68 73 78 82 84 86 88 90 94 96 100 103 106 108 109 108 111 109 107 106 103 92 88 82
75 76 75 74 72 67 71 77 79 81 80 82 82 80 76 73 71 70 72 75 77 81 84 85 88 91 94 96 97 102 107 109 109 111 113 112 117 114 113 107 107 102 96 89
78 79 80 79 77 78 79 82 84 87 86 86 84 82 79 74 74 75 78 81 85 88 90 93 95 95 97 100 102 107 111 114 115 115 117 118 117 115 117 111 108 109 103 93
77 76 80 82 79 83 84 84 86 87 85 86 84 81 81 80 82 85 86 89 92 95 97 99 99 99 101 106 109 112 116 118 120 120 120 120 119 120 120 116 115 112 109 98
77 78 77 78 78 83 82 84 84 84 83 83 84 85 87 88 90 93 95 98 99 101 102 102 103 105 108 112 116 120 121 122 122 123 125 124 124 126 127 123 119 115 114 105
78 83 85 82 86 87 85 88 87 88 87 86 89 92 93 95 97 100 100 104 106 106 106 108 110 114 117 121 123 124 127 128 128 130 129 130 127 127 127 126 123 117 119 110
Wind_Direction
95 95 93 91 89 86 83 80 76 74 73 73 73 70 65 57 51 49 47 45 43 40 40 38 38 36 34 31 30 28 27 26 26 23 18 9 351 323 301 290 288 286 284 284
95 92 90 88 86 83 80 77 73 72 68 65 66 64 61 55 47 46 43 39 38 36 35 34 36 31 30 27 25 24 24 24 23 21 20 13 4 351 331 306 291 286 286 285
94 91 86 83 83 80 76 74 70 67 63 60 57 55 56 52 48 43 41 35 33 33 31 30 28 26 24 23 22 20 20 20 17 19 19 18 13 0 346 332 313 294 285 283
88 84 83 81 77 73 70 67 65 59 55 55 50 49 46 42 42 43 33 31 31 31 28 24 23 21 18 19 16 17 16 15 16 14 16 13 12 10 359 343 334 321 298 289
73 76 76 76 70 66 61 57 57 55 50 45 46 43 41 37 35 40 34 25 27 27 26 24 20 19 17 13 13 14 12 13 13 12 10 10 11 12 6 358 342 334 326 307
68 57 61 61 61 59 54 51 44 42 40 38 36 36 32 31 30 29 28 22 22 23 22 18 19 15 15 13 10 8 8 7 9 9 7 7 8 9 8 3 354 340 334 323
46 38 45 42 45 42 40 46 43 36 28 30 26 23 20 20 24 21 19 16 17 15 14 12 12 11 12 11 7 6 4 5 5 7 8 6 5 6 6 4 359 347 337 328
359 357 4 5 17 19 19 18 33 26 29 20 19 12 9 10 12 12 11 10 9 8 5 3 4 8 9 8 3 3 1 1 1 4 5 3 3 2 3 3 1 353 341 330
318 335 314 339 353 352 359 353 357 3 5 12 12 4 3 0 4 359 359 2 358 1 357 356 359 3 5 4 0 359 358 358 358 359 1 360 1 1 360 1 0 358 347 335
285 310 316 302 318 327 332 336 337 346 348 353 359 356 354 354 351 353 348 349 353 354 353 352 353 358 358 0 359 355 354 354 355 356 357 359 358 357 358 358 359 354 352 342
292 304 302 297 299 305 312 326 336 334 334 339 343 345 342 344 341 343 342 340 341 347 346 345 347 351 353 353 354 353 351 352 352 353 354 355 356 357 355 354 356 353 344 342
266 270 279 285 294 306 314 320 324 329 333 333 332 332 334 336 336 337 335 333 336 339 341 340 341 345 348 348 349 349 347 349 349 349 352 352 353 355 356 354 353 353 347 338
269 278 286 293 295 300 305 311 316 320 324 327 330 330 331 328 326 331 333 332 332 334 337 337 338 340 342 343 344 344 344 345 346 347 349 350 351 352 353 353 354 352 350 336
273 278 282 286 290 295 300 303 309 313 315 319 324 322 332 328 327 323 325 326 329 328 329 332 334 335 337 339 339 340 340 342 342 345 346 347 347 348 349 350 350 351 349 345
272 278 280 285 289 292 295 298 302 304 309 313 318 319 327 324 325 324 323 322 324 327 325 327 328 331 333 335 336 336 336 338 340 341 343 345 344 345 347 347 348 347 347 346
274 279 282 285 288 290 295 296 298 302 307 310 312 314 320 318 320 319 320 321 322 324 322 323 325 328 330 331 332 332 333 336 337 338 340 341 342 342 343 345 344 346 346 342
273 277 280 283 286 288 291 292 294 297 300 305 307 308 311 314 315 315 319 320 320 320 319 319 322 324 326 328 329 328 330 333 333 335 336 338 338 339 340 340 342 342 343 339
272 274 276 279 283 287 289 292 294 296 299 302 304 305 307 310 313 313 316 318 319 316 315 317 320 321 322 324 325 325 328 329 331 333 333 335 336 335 338 337 339 339 340 338
271 274 276 278 281 283 287 287 289 292 297 296 300 302 305 308 311 312 314 317 315 312 313 316 318 318 321 322 322 323 325 327 328 329 330 333 333 333 334 336 336 336 336 336
271 272 275 277 278 281 285 284 287 292 293 296 297 299 303 306 309 309 311 311 309 310 312 315 316 317 319 319 319 321 322 323 326 326 329 330 331 331 332 334 332 333 332 331
270 271 273 276 277 280 283 283 286 286 288 290 294 298 301 303 305 308 307 307 307 309 311 312 314 316 315 317 318 319 320 322 323 324 326 327 328 328 331 330 332 330 330 326
271 274 276 276 278 282 282 283 285 287 289 290 293 296 298 301 303 303 303 304 307 308 310 311 312 313 314 314 316 317 319 320 321 322 324 325 324 326 328 329 327 329 327 325
270 273 275 281 280 282 281 281 284 286 290 292 293 296 299 301 299 299 301 304 305 306 307 308 311 311 312 313 314 316 316 317 319 320 323 321 322 323 325 325 328 326 325 323
268 272 275 277 278 277 278 280 282 285 288 290 293 296 297 296 296 298 300 301 302 304 306 308 308 310 311 311 313 314 314 316 317 319 319 319 321 321 324 323 322 325 323 319
271 271 273 274 277 275 279 281 284 287 287 290 293 294 294 295 297 297 299 301 302 304 305 306 307 308 309 310 311 312 313 314 316 316 316 318 319 320 321 320 321 321 320 315
269 269 270 272 273 276 279 280 282 283 286 289 289 291 294 296 296 298 299 300 301 302 303 304 306 308 308 309 310 310 312 314 313 314 316 318 318 318 317 318 318 317 317 312
Height
10903 10904 10905 10906 10906 10907 10907 10907 10906 10904 10904 10903 10902 10900 10898 10896 10893 10891 10888 10885 10880 10876 10871 10867 10861 10857 10851 10845 10839 10833 10826 10819 10813 10804 10797 10790 10785 10780 10775 10771 10768 10765 10762 10760
10910 10910 10911 10911 10912 10911 10911 10911 10910 10910 10909 10907 10905 10903 10900 10897 10895 10892 10889 10885 10880 10877 10871 10867 10861 10857 10852 10846 10839 10834 10827 10820 10813 10806 10797 10788 10781 10775 10769 10764 10760 10756 10753 10750
10915 10915 10915 10915 10915 10915 10915 10914 10913 10912 10911 10909 10907 10905 10902 10899 10896 10892 10889 10885 10882 10877 10873 10867 10862 10858 10852 10847 10840 10834 10826 10820 10813 10806 10798 10790 10781 10772 10763 10757 10752 10746 10743 10740
10919 10918 10918 10918 10917 10917 10916 10916 10915 10914 10913 10911 10909 10907 10904 10900 10897 10893 10890 10887 10883 10877 10872 10867 10862 10858 10852 10847 10841 10834 10827 10820 10813 10805 10797 10790 10782 10771 10760 10752 10744 10738 10732 10728
10921 10921 10921 10920 10919 10919 10919 10918 10916 10915 10914 10912 10911 10909 10905 10901 10898 10894 10890 10886 10881 10876 10872 10868 10863 10858 10852 10846 10841 10834 10826 10818 10811 10803 10795 10787 10777 10767 10758 10750 10740 10732 10726 10720
10922 10922 10922 10921 10921 10920 10919 10917 10916 10914 10913 10912 10911 10908 10905 10902 10898 10894 10891 10887 10881 10876 10872 10867 10862 10856 10850 10845 10838 10832 10825 10817 10809 10801 10791 10782 10773 10762 10753 10743 10734 10725 10716 10711
10923 10922 10922 10922 10921 10920 10919 10918 10917 10915 10912 10911 10908 10906 10903 10900 10897 10894 10890 10885 10881 10876 10871 10865 10860 10854 10849 10842 10836 10830 10822 10815 10806 10797 10788 10778 10767 10757 10748 10738 10727 10717 10710 10702
10923 10922 10922 10920 10920 10919 10917 10917 10915 10914 10913 10910 10907 10904 10901 10898 10894 10890 10886 10882 10878 10874 10869 10863 10858 10852 10846 10840 10834 10826 10818 10811 10803 10794 10784 10775 10764 10753 10744 10734 10724 10712 10702 10695
10921 10920 10920 10919 10918 10917 10916 10915 10913 10911 10910 10909 10906 10902 10898 10895 10892 10888 10883 10879 10875 10871 10866 10860 10855 10850 10844 10837 10830 10823 10816 10807 10799 10789 10780 10770 10759 10749 10739 10728 10718 10708 10697 10689
10918 10917 10917 10917 10917 10916 10915 10913 10912 10910 10906 10904 10903 10901 10898 10893 10889 10885 10881 10876 10872 10867 10862 10856 10851 10844 10839 10833 10827 10820 10811 10803 10793 10785 10775 10766 10755 10744 10733 10723 10712 10702 10693 10683
10915 10915 10915 10914 10913 10912 10911 10910 10908 10907 10904 10901 10898 10898 10894 10892 10888 10884 10879 10874 10868 10864 10859 10853 10847 10840 10833 10827 10820 10814 10806 10798 10789 10779 10770 10761 10751 10740 10729 10718 10707 10696 10686 10678
10911 10911 10911 10910 10908 10907 10906 10904 10902 10901 10899 10897 10895 10893 10890 10886 10883 10879 10875 10872 10867 10861 10854 10848 10842 10835 10828 10821 10813 10806 10799 10791 10783 10774 10764 10754 10745 10735 10724 10713 10703 10692 10681 10672
10905 10905 10905 10904 10902 10901 10900 10899 10896 10894 10893 10891 10890 10889 10887 10882 10879 10875 10870 10865 10859 10854 10848 10842 10836 10829 10823 10815 10807 10799 10791 10784 10775 10767 10757 10749 10739 10727 10719 10708 10698 10687 10677 10666
10898 10898 10899 10898 10896 10894 10893 10892 10891 10888 10887 10884 10884 10877 10881 10877 10874 10870 10865 10859 10855 10849 10842 10836 10829 10822 10814 10807 10799 10792 10784 10776 10767 10759 10751 10740 10731 10722 10711 10701 10690 10681 10670 10660
10889 10890 10891 10890 10890 10887 10885 10883 10882 10880 10880 10878 10874 10872 10872 10866 10863 10859 10856 10852 10847 10840 10834 10827 10820 10813 10806 10798 10791 10783 10775 10767 10758 10749 10742 10733 10721 10712 10702 10693 10684 10673 10662 10652
10881 10881 10881 10881 10881 10879 10876 10873 10874 10870 10868 10868 10867 10861 10863 10859 10856 10851 10847 10842 10836 10830 10825 10818 10811 10805 10797 10790 10782 10775 10766 10758 10749 10740 10731 10723 10713 10702 10693 10684 10673 10664 10653 10643
10870 10870 10870 10873 10872 10871 10868 10860 10862 10860 10859 10858 10855 10852 10851 10849 10845 10841 10837 10832 10827 10820 10813 10806 10800 10793 10786 10779 10772 10764 10756 10748 10738 10730 10721 10712 10701 10693 10682 10672 10663 10653 10643 10633
10858 10858 10860 10860 10862 10864 10859 10851 10846 10845 10844 10843 10842 10839 10839 10839 10835 10829 10827 10821 10815 10807 10800 10794 10789 10781 10774 10768 10761 10752 10744 10735 10726 10718 10709 10700 10690 10678 10670 10659 10650 10640 10630 10621
10844 10845 10846 10846 10850 10852 10849 10843 10835 10834 10833 10825 10830 10824 10824 10824 10822 10816 10814 10809 10802 10794 10787 10782 10776 10769 10763 10756 10747 10739 10731 10722 10713 10704 10696 10686 10676 10666 10656 10646 10636 10626 10617 10607
10828 10829 10832 10833 10835 10841 10838 10828 10824 10823 10824 10811 10814 10811 10810 10809 10808 10804 10802 10797 10792 10785 10778 10772 10764 10756 10750 10742 10733 10725 10716 10709 10701 10689 10681 10671 10662 10651 10641 10632 10622 10614 10604 10594
10812 10813 10817 10815 10821 10830 10821 10810 10811 10810 10808 10804 10799 10800 10800 10796 10793 10789 10785 10781 10778 10773 10766 10759 10752 10743 10733 10726 10718 10708 10699 10692 10685 10674 10665 10656 10646 10635 10626 10616 10607 10599 10591 10581
10797 10797 10801 10798 10806 10813 10806 10797 10791 10790 10792 10788 10786 10785 10786 10784 10780 10775 10769 10765 10761 10755 10749 10743 10737 10728 10719 10710 10703 10691 10680 10675 10668 10657 10646 10637 10628 10618 10607 10598 10587 10579 10572 10564
10783 10782 10780 10787 10790 10789 10788 10783 10780 10775 10774 10770 10769 10768 10767 10769 10763 10757 10753 10748 10741 10736 10731 10725 10722 10714 10700 10692 10685 10675 10660 10652 10647 10640 10627 10618 10611 10599 10587 10578 10568 10559 10548 10539
10772 10770 10768 10766 10776 10767 10765 10763 10759 10761 10761 10753 10751 10754 10750 10748 10742 10739 10735 10730 10725 10719 10714 10705 10699 10695 10687 10672 10664 10656 10645 10635 10625 10616 10610 10599 10588 10575 10566 10556 10545 10535 10525 10518
10754 10755 10755 10754 10754 10741 10747 10742 10742 10741 10739 10739 10737 10731 10727 10725 10723 10715 10714 10708 10702 10696 10690 10686 10678 10673 10667 10655 10643 10631 10621 10612 10604 10598 10586 10575 10564 10552 10540 10533 10523 10511 10501 10493
10738 10735 10731 10736 10731 10726 10729 10720 10724 10723 10726 10726 10718 10712 10707 10700 10696 10693 10690 10682 10679 10677 10670 10662 10655 10648 10640 10629 10621 10609 10598 10588 10576 10569 10556 10547 10538 10527 10517 10508 10499 10487 10477 10464